EW3281 Weather Reports


time (UTC)temp
C
wind
direction
speed
KPH
gust
KPH
rain 1hr
cm
rain 24hr
cm
rain mn
cm
humidity
%
barometer
mb
20260507060535 12 257 0.0 0.0 0.00 0.23 0.23 96 1004.3
20260507060047 12 257 0.0 0.0 0.00 0.23 0.23 96 1004.3
20260507055536 12 253 0.0 0.0 0.00 0.23 0.23 96 1004.5
20260507055033 12 82 0.0 0.0 0.00 0.23 0.23 96 1004.7
20260507054544 12 220 0.0 0.0 0.00 0.23 0.23 96 1004.8
20260507054034 12 220 0.0 0.0 0.00 0.23 0.23 96 1004.7
20260507053535 12 220 0.0 0.0 0.00 0.23 0.23 96 1004.8
20260507053036 12 214 0.0 0.0 0.00 0.23 0.23 96 1004.9
20260507052533 12 222 0.0 0.0 0.00 0.23 0.23 96 1005.1
20260507052033 12 220 0.0 0.0 0.00 0.23 0.23 96 1005.0
20260507051534 12 23 0.0 0.0 0.00 0.23 0.23 96 1005.0
20260507051036 12 164 0.0 0.0 0.00 0.23 0.23 96 1005.2
20260507050534 12 164 0.0 0.0 0.00 0.23 0.23 96 1005.1
20260507050034 12 165 0.0 0.0 0.00 0.23 0.23 96 1005.3
20260507045532 12 41 0.0 0.0 0.00 0.23 0.23 96 1005.4
20260507045032 12 41 0.0 0.0 0.00 0.23 0.23 96 1005.2
20260507044547 12 32 0.0 0.0 0.00 0.23 0.23 96 1005.2
20260507044033 12 108 0.0 0.0 0.00 0.23 0.23 96 1005.2
20260507043531 12 108 0.0 0.0 0.00 0.23 0.23 96 1005.2
20260507043032 12 108 0.0 0.0 0.00 0.23 0.23 96 1005.3
20260507042532 12 63 0.0 0.0 0.00 0.23 0.23 96 1005.2
20260507042031 12 115 0.0 0.0 0.00 0.23 0.23 96 1005.2
20260507041530 12 342 0.0 0.0 0.00 0.23 0.23 96 1005.1
20260507041030 12 77 0.0 0.0 0.00 0.23 0.23 96 1005.2
20260507040530 12 49 0.0 0.0 0.00 0.23 0.23 96 1005.1
20260507040034 12 25 0.0 0.0 0.00 0.23 0.23 96 1005.4
20260507035529 12 30 0.0 0.0 0.00 0.23 0.23 96 1005.4
20260507035029 12 47 0.0 0.0 0.00 0.23 0.23 96 1005.2
20260507034534 12 53 0.0 0.0 0.00 0.23 0.23 96 1005.1
20260507034028 12 18 0.0 0.0 0.00 0.23 0.23 96 1005.4
20260507033527 12 19 0.0 0.0 0.00 0.23 0.23 96 1005.5
20260507033028 12 19 0.0 0.0 0.00 0.23 0.23 96 1005.4
20260507032526 12 339 0.0 0.0 0.00 0.23 0.23 96 1005.5
20260507032030 12 263 0.0 0.0 0.00 0.23 0.23 96 1005.7
20260507031526 12 241 0.0 0.0 0.00 0.23 0.23 96 1005.8
20260507031026 12 240 0.0 0.0 0.00 0.23 0.23 96 1005.6
20260507030531 12 259 0.0 0.0 0.00 0.23 0.23 96 1005.3
20260507030026 12 354 0.0 0.0 0.00 0.23 0.23 96 1005.4
20260507025525 12 66 0.0 0.0 0.00 0.23 0.23 96 1005.4
20260507025025 12 64 0.0 0.0 0.00 0.23 0.23 96 1005.4
20260507024525 12 48 0.0 0.0 0.00 0.23 0.23 96 1005.5
20260507024026 12 158 0.0 0.0 0.00 0.23 0.23 96 1005.4
20260507023529 12 158 0.0 0.0 0.00 0.23 0.23 96 1005.4
20260507023026 12 127 0.0 0.0 0.00 0.23 0.23 96 1005.6
20260507022530 12 223 0.0 0.0 0.00 0.23 0.23 96 1005.5
20260507022029 12 32 0.0 0.0 0.00 0.23 0.23 96 1005.6
20260507021529 12 99 0.0 0.0 0.00 0.23 0.23 96 1005.7
20260507021028 12 68 0.0 0.0 0.00 0.23 0.23 96 1005.5
20260507020524 12 77 0.0 0.0 0.00 0.23 0.23 96 1005.5
20260507020032 12 7 0.0 0.0 0.00 0.23 0.23 96 1005.5
20260507015527 12 324 0.0 0.0 0.00 0.23 0.23 96 1005.6
20260507015023 12 212 0.0 0.0 0.00 0.23 0.23 96 1005.5
20260507014522 12 113 0.0 0.0 0.00 0.23 0.23 96 1005.6
20260507014025 12 8 0.0 0.0 0.00 0.23 0.23 96 1005.8
20260507013520 12 195 0.0 0.0 0.00 0.23 0.23 96 1005.8
20260507013021 12 66 0.0 0.0 0.00 0.23 0.23 96 1005.8
20260507012521 12 135 0.0 0.0 0.00 0.23 0.23 96 1005.8
20260507012020 12 111 0.0 0.0 0.00 0.23 0.23 96 1005.9
20260507011521 12 111 0.0 0.0 0.00 0.23 0.23 96 1006.0
20260507011021 12 160 0.0 0.0 0.00 0.23 0.23 96 1006.0
20260507010520 12 79 0.0 0.0 0.00 0.23 0.23 96 1006.0
20260507010026 12 46 0.0 0.0 0.00 0.23 0.23 96 1006.1
20260507005519 12 200 0.0 0.0 0.00 0.23 0.23 96 1006.1
20260507005019 12 44 0.0 0.0 0.00 0.23 0.23 96 1006.1
20260507004524 12 46 0.0 0.0 0.00 0.23 0.23 96 1006.1
20260507004019 12 49 0.0 0.0 0.00 0.23 0.23 96 1006.0
20260507003520 12 53 0.0 0.0 0.00 0.23 0.23 96 1006.1
20260507003026 12 90 0.0 0.0 0.00 0.23 0.23 96 1006.0
20260507002519 12 190 0.0 0.0 0.00 0.23 0.23 96 1006.0
20260507002020 12 27 0.0 0.0 0.00 0.23 0.23 96 1005.9
20260507001524 12 129 0.0 1.6 0.00 0.23 0.23 96 1005.9
20260507001020 12 58 0.0 1.6 0.00 0.23 0.23 96 1005.9
20260507000519 12 253 0.0 0.0 0.00 0.23 0.23 96 1005.9
20260507000018 12 84 0.0 0.0 0.00 0.23 0.23 96 1006.0
20260506235517 12 271 0.0 0.0 0.00 0.23 0.23 96 1005.9
20260506235017 12 88 0.0 0.0 0.00 0.23 0.23 96 1006.0
20260506234517 12 224 0.0 0.0 0.00 0.23 0.23 96 1005.9
20260506234018 12 85 0.0 0.0 0.00 0.23 0.23 96 1005.9
20260506233514 12 164 0.0 0.0 0.03 0.23 0.23 96 1005.9
20260506233014 12 40 0.0 0.0 0.03 0.23 0.23 96 1005.9
20260506232514 12 184 0.0 0.0 0.03 0.23 0.23 96 1005.9
20260506232014 12 74 0.0 0.0 0.03 0.23 0.23 96 1005.9
20260506231514 12 60 0.0 0.0 0.05 0.23 0.23 96 1005.9
20260506231014 12 22 0.0 1.6 0.10 0.23 0.23 96 1005.9
20260506230513 12 120 0.0 1.6 0.13 0.23 0.23 96 1005.8
20260506230012 12 111 0.0 6.4 0.15 0.23 0.23 96 1005.8
20260506225512 12 75 0.0 6.4 0.15 0.23 0.23 96 1005.8
20260506225113 12 64 0.0 6.4 0.15 0.23 0.23 95 1005.8
20260506224511 12 52 0.0 1.6 0.18 0.23 0.23 95 1005.8
20260506224010 12 151 0.0 1.6 0.18 0.23 0.23 95 1005.8
20260506223511 12 62 0.0 0.0 0.15 0.20 0.20 95 1005.9
20260506223009 12 59 0.0 0.0 0.15 0.20 0.20 95 1005.9
20260506222511 12 78 0.0 0.0 0.15 0.20 0.20 95 1005.8
20260506222009 12 78 0.0 0.0 0.15 0.20 0.20 95 1005.8
20260506221507 12 49 0.0 0.0 0.15 0.18 0.18 95 1006.0
20260506221005 12 345 0.0 6.4 0.10 0.13 0.13 95 1006.1
20260506220506 12 60 0.0 6.4 0.10 0.13 0.13 95 1006.1
20260506220005 12 25 0.0 0.0 0.08 0.10 0.10 94 1006.3
20260506215505 12 306 0.0 0.0 0.05 0.08 0.08 94 1006.2
20260506215005 12 27 0.0 0.0 0.05 0.08 0.08 94 1006.4
20260506214505 12 143 0.0 0.0 0.03 0.05 0.05 94 1006.3
20260506214008 12 86 0.0 1.6 0.05 0.05 0.05 94 1006.4
20260506213502 12 53 0.0 1.6 0.05 0.05 0.05 94 1006.4
20260506213004 12 94 0.0 1.6 0.05 0.05 0.05 94 1006.4
20260506212501 12 349 0.0 1.6 0.05 0.05 0.05 93 1006.4
20260506212101 12 124 0.0 1.6 0.05 0.05 0.05 93 1006.5
20260506211559 12 85 0.0 0.0 0.03 0.03 0.03 93 1006.7
20260506211100 12 107 0.0 1.6 0.03 0.03 0.03 93 1006.6
20260506210058 12 45 0.0 1.6 0.03 0.03 0.03 92 1006.6
20260506205557 13 62 0.0 1.6 0.03 0.03 0.03 92 1006.7
20260506205056 13 52 0.0 1.6 0.03 0.03 0.03 92 1006.8
20260506204615 13 246 0.0 0.0 0.03 0.03 0.03 91 1006.8
20260506204054 13 219 0.0 3.2 0.03 0.03 0.03 91 1007.0
20260506203554 13 70 0.0 3.2 0.00 0.00 0.00 91 1006.9
20260506203055 13 90 0.0 0.0 0.00 0.00 0.00 91 1006.8
20260506202553 13 327 0.0 0.0 0.00 0.00 0.00 91 1006.9
20260506202054 13 217 0.0 1.6 0.00 0.00 0.00 91 1006.9
20260506201553 13 104 0.0 1.6 0.00 0.00 0.00 91 1006.9
20260506201052 13 52 0.0 0.0 0.00 0.00 0.00 90 1006.9
20260506200035 13 80 0.0 0.0 0.00 0.00 0.00 90 1007.0
20260506195534 13 356 0.0 0.0 0.00 0.00 0.00 90 1007.2
20260506195033 13 58 0.0 0.0 0.00 0.00 0.00 91 1007.1
20260506194532 13 198 0.0 0.0 0.00 0.00 0.00 90 1007.2
20260506194035 14 99 0.0 0.0 0.00 0.00 0.00 89 1007.2
20260506193530 14 8 0.0 0.0 0.00 0.00 0.00 88 1007.2
20260506193029 14 98 0.0 0.0 0.00 0.00 0.00 87 1007.3
20260506192527 15 62 0.0 1.6 0.00 0.00 0.00 86 1007.3
20260506192026 15 88 0.0 3.2 0.00 0.00 0.00 84 1007.2
20260506191526 15 167 0.0 3.2 0.00 0.00 0.00 83 1007.3
20260506191024 15 226 0.0 8.0 0.00 0.00 0.00 81 1007.3
20260506190519 15 89 0.0 8.0 0.00 0.00 0.00 81 1007.3
20260506190017 15 138 0.0 8.0 0.00 0.00 0.00 81 1007.4
20260506185515 16 30 0.0 14.5 0.00 0.00 0.00 80 1007.4
20260506185017 16 131 0.0 14.5 0.00 0.00 0.00 80 1007.5
20260506184514 16 261 0.0 1.6 0.00 0.00 0.00 80 1007.3
20260506184014 16 217 0.0 1.6 0.00 0.00 0.00 80 1007.4
20260506183513 16 287 0.0 0.0 0.00 0.00 0.00 80 1007.5
20260506183012 16 84 0.0 1.6 0.00 0.00 0.00 79 1007.5
20260506182511 16 81 0.0 0.0 0.00 0.00 0.00 79 1007.7
20260506182010 16 183 0.0 0.0 0.00 0.00 0.00 79 1007.9
20260506181509 16 312 0.0 0.0 0.00 0.00 0.00 78 1007.8
20260506181009 16 96 0.0 0.0 0.00 0.00 0.00 78 1007.8
20260506180036 16 87 0.0 1.6 0.00 0.00 0.00 78 1007.8
20260506175532 16 169 0.0 1.6 0.00 0.00 0.00 78 1008.0
20260506175028 17 56 0.0 0.0 0.00 0.00 0.00 77 1008.0
20260506174532 17 70 0.0 3.2 0.00 0.00 0.00 76 1008.2
20260506174027 17 70 0.0 3.2 0.00 0.00 0.00 76 1008.2
20260506173526 17 74 0.0 1.6 0.00 0.00 0.00 75 1008.2
20260506173026 17 49 0.0 1.6 0.00 0.00 0.00 75 1008.5
20260506172524 17 332 0.0 1.6 0.00 0.00 0.00 75 1008.6
20260506172025 17 338 0.0 4.8 0.00 0.00 0.00 74 1008.4
20260506171527 18 76 0.0 4.8 0.00 0.00 0.00 74 1008.3
20260506171024 18 150 0.0 1.6 0.00 0.00 0.00 74 1008.4
20260506170055 18 316 0.0 1.6 0.00 0.00 0.00 74 1008.5
20260506165551 18 183 0.0 0.0 0.00 0.00 0.00 75 1008.4
20260506165051 17 50 0.0 8.0 0.00 0.00 0.00 75 1008.6
20260506164557 17 120 0.0 8.0 0.00 0.00 0.00 75 1008.6
20260506164049 17 82 0.0 4.8 0.00 0.00 0.00 76 1008.8
20260506163549 17 36 0.0 6.4 0.00 0.00 0.00 77 1009.0
20260506163049 17 80 0.0 9.7 0.00 0.00 0.00 76 1008.8
20260506162547 17 98 0.0 4.8 0.00 0.00 0.00 75 1009.0
20260506162050 17 296 0.0 3.2 0.00 0.00 0.00 75 1009.1
20260506161546 17 79 0.0 3.2 0.00 0.00 0.00 74 1008.8
20260506161045 17 210 0.0 16.1 0.00 0.00 0.00 73 1008.9
20260506160046 18 118 0.0 6.4 0.00 0.00 0.00 73 1009.3
20260506155544 18 97 0.0 1.6 0.00 0.00 0.00 73 1009.1
20260506155047 18 114 0.0 3.2 0.00 0.00 0.00 73 1009.2
20260506154552 18 188 0.0 3.2 0.00 0.00 0.00 74 1009.3
20260506154041 18 178 0.0 9.7 0.00 0.00 0.00 74 1009.4
20260506153541 18 98 0.0 4.8 0.00 0.00 0.00 74 1009.3
20260506153041 17 11 0.0 9.7 0.00 0.00 0.00 75 1009.3
20260506152537 17 65 0.0 9.7 0.00 0.00 0.00 75 1009.5
20260506152036 17 120 0.0 1.6 0.00 0.00 0.00 76 1009.4
20260506151537 17 235 0.0 1.6 0.00 0.00 0.00 76 1009.5
20260506151033 17 90 0.0 3.2 0.00 0.00 0.00 78 1009.6
20260506150021 17 10 0.0 3.2 0.00 0.00 0.00 76 1009.7
20260506145524 17 58 0.0 1.6 0.00 0.00 0.00 77 1009.7
20260506145019 17 121 0.0 1.6 0.00 0.00 0.00 77 1009.6
20260506144517 17 98 0.0 0.0 0.00 0.00 0.00 78 1009.5
20260506144020 17 264 0.0 1.6 0.00 0.00 0.00 77 1009.5
20260506143514 17 113 0.0 1.6 0.00 0.00 0.00 78 1009.5
20260506143013 16 102 0.0 0.0 0.00 0.00 0.00 79 1009.5
20260506142513 16 65 0.0 0.0 0.00 0.00 0.00 78 1009.7
20260506142008 16 216 0.0 0.0 0.00 0.00 0.00 78 1009.7
20260506141508 16 61 0.0 0.0 0.00 0.00 0.00 79 1009.7
20260506141007 16 79 0.0 1.6 0.00 0.00 0.00 79 1009.5
20260506140057 16 82 0.0 12.9 0.00 0.00 0.00 79 1009.2
20260506135545 16 117 0.0 12.9 0.00 0.00 0.00 79 1009.4
20260506135044 16 238 0.0 4.8 0.00 0.00 0.00 79 1009.4
20260506134544 16 98 0.0 0.0 0.00 0.00 0.00 79 1009.6
20260506134041 16 91 0.0 0.0 0.00 0.00 0.00 80 1009.7
20260506133540 16 96 0.0 1.6 0.00 0.00 0.00 81 1009.8
20260506133046 16 22 0.0 1.6 0.00 0.00 0.00 81 1009.9
20260506132537 16 138 0.0 1.6 0.00 0.00 0.00 82 1010.0
20260506132039 16 21 0.0 1.6 0.00 0.00 0.00 83 1009.9
20260506131536 15 198 0.0 1.6 0.00 0.00 0.00 83 1009.9
20260506131032 15 341 0.0 1.6 0.00 0.00 0.00 84 1010.0
20260506130030 15 104 0.0 0.0 0.00 0.00 0.00 84 1010.0
20260506125527 15 65 0.0 0.0 0.00 0.00 0.00 85 1010.0
20260506125026 15 87 0.0 0.0 0.00 0.00 0.00 85 1010.0
20260506124525 15 106 0.0 9.7 0.00 0.00 0.00 85 1009.9
20260506124024 15 29 0.0 9.7 0.00 0.00 0.00 85 1010.0
20260506123522 15 114 1.6 9.7 0.00 0.00 0.00 85 1009.9
20260506123021 15 24 0.0 3.2 0.00 0.00 0.00 85 1009.8
20260506122520 15 108 0.0 4.8 0.00 0.00 0.00 86 1009.9
20260506122017 14 70 0.0 0.0 0.00 0.00 0.00 86 1009.9
20260506121516 14 302 0.0 0.0 0.00 0.00 0.00 87 1010.0
20260506121019 13 91 0.0 0.0 0.00 0.00 0.00 87 1010.1
20260506120023 13 89 0.0 0.0 0.00 0.00 0.00 87 1010.2
20260506115516 13 67 0.0 0.0 0.00 0.00 0.00 87 1010.2
20260506115012 14 83 0.0 0.0 0.00 0.00 0.00 87 1010.1
20260506114510 14 95 0.0 1.6 0.00 0.00 0.00 88 1010.3
20260506114009 13 134 0.0 1.6 0.00 0.00 0.00 89 1010.3
20260506113508 13 238 0.0 4.8 0.00 0.00 0.00 89 1010.4
20260506113009 13 293 0.0 4.8 0.00 0.00 0.00 90 1010.3
20260506112505 13 70 0.0 0.0 0.00 0.00 0.00 90 1010.4
20260506112003 13 98 0.0 1.6 0.00 0.00 0.00 90 1010.6
20260506111501 13 2 0.0 1.6 0.00 0.00 0.00 90 1010.5
20260506111101 13 33 0.0 0.0 0.00 0.00 0.00 91 1010.5
20260506110103 13 52 0.0 0.0 0.00 0.00 0.00 90 1010.5
20260506105559 13 341 0.0 0.0 0.00 0.00 0.00 90 1010.3
20260506105058 13 33 0.0 0.0 0.00 0.00 0.00 91 1010.4
20260506104559 13 91 0.0 0.0 0.00 0.00 0.00 91 1010.3
20260506104054 13 129 0.0 0.0 0.00 0.00 0.00 91 1010.1
20260506103552 -17 75 0.0 0.0 0.00 0.00 0.00 1010.1
20260506103058 -17 0.0 0.0 0.00 0.00 0.00 1010.1
20260506102550 -17 0.0 0.0 0.00 0.00 0.00 1010.2
20260506102048 -17 0.0 0.0 0.00 0.00 0.00 1010.1
20260506101551 -17 0.0 0.0 0.00 0.00 0.00 1010.1
20260506101046 -17 0.0 0.0 0.00 0.00 0.00 1010.1
20260506100042 -17 0.0 0.0 0.00 0.00 0.00 1009.9
20260506095541 -17 0.0 0.0 0.00 0.00 0.00 1009.9
20260506095043 -17 0.0 0.0 0.00 0.00 0.00 1009.9
20260506094538 -17 0.0 0.0 0.00 0.00 0.00 1009.8
20260506094036 -17 0.0 0.0 0.00 0.00 0.00 1009.9
20260506093536 -17 0.0 0.0 0.00 0.00 0.00 1009.9
20260506093034 -17 0.0 0.0 0.00 0.00 0.00 1010.0
20260506092532 -67 30 0.0 0.0 0.00 0.00 0.00 91 1010.0
20260506092031 -67 30 0.0 0.0 0.00 0.00 0.00 91 1010.0
20260506091530 13 328 0.0 4.8 0.00 0.00 0.00 91 1010.1
20260506091029 13 100 0.0 4.8 0.00 0.00 0.00 91 1010.1
20260506090029 13 340 0.0 0.0 0.00 0.00 0.00 90 1010.2
20260506085529 13 108 0.0 0.0 0.00 0.00 0.00 90 1010.2
20260506085029 13 125 0.0 0.0 0.00 0.00 0.00 90 1010.2
20260506084535 13 41 0.0 0.0 0.00 0.00 0.00 90 1010.2
20260506084029 13 60 0.0 0.0 0.00 0.00 0.00 90 1010.2
20260506083529 13 115 0.0 0.0 0.00 0.00 0.00 90 1010.2
20260506083032 13 336 0.0 0.0 0.00 0.00 0.00 90 1010.2
20260506082527 13 134 0.0 0.0 0.00 0.00 0.00 90 1010.3
20260506082027 13 50 0.0 0.0 0.00 0.00 0.00 90 1010.3
20260506081528 13 59 0.0 0.0 0.00 0.00 0.00 90 1010.4
20260506081031 13 333 0.0 0.0 0.00 0.00 0.00 89 1010.3
20260506073527 13 34 0.0 0.0 0.00 0.00 0.00 90 1010.4
20260506073026 13 57 0.0 0.0 0.00 0.00 0.00 89 1010.3
20260506072525 13 130 0.0 0.0 0.00 0.00 0.00 89 1010.4
20260506072026 13 238 0.0 0.0 0.00 0.00 0.00 89 1010.3
20260506071526 13 343 0.0 1.6 0.00 0.00 0.00 89 1010.4
20260506071028 13 18 0.0 1.6 0.00 0.00 0.00 89 1010.3
20260506062025 13 58 0.0 0.0 0.00 0.00 0.00 87 1010.2
20260506061525 13 59 0.0 0.0 0.00 0.00 0.00 87 1010.3
20260506061024 13 50 0.0 0.0 0.00 0.00 0.00 87 1010.3